SWA3587 KDEN-KPHX

Flight info

Callsign SWA3587
Flight time 1h 32m
Altitude 36000
Route SMMUR2 DAAYE GUP EAGUL6
Aircraft B738/M-SDE2E3FGHIRWXY/LB1

Departure

Time 2026-05-04 02:14
Airport Denver International Airport (KDEN)

Arrival

Time 2026-05-04 03:46
Airport Phoenix Sky Harbor International Airport (KPHX)
Time Latitude Longitude Altitude Speed Heading
2026-05-04 01:27 39.86357 -104.67786 5376 ft 0 kts 180°
2026-05-04 02:03 39.86369 -104.67786 5376 ft 4 kts 180°
2026-05-04 02:03 39.86396 -104.67786 5372 ft 4 kts 180°
2026-05-04 02:03 39.86420 -104.67785 5373 ft 1 kts 180°
2026-05-04 02:07 39.86419 -104.67784 5376 ft 1 kts 168°
2026-05-04 02:07 39.86416 -104.67770 5376 ft 5 kts 101°
2026-05-04 02:07 39.86420 -104.67709 5373 ft 8 kts 83°
2026-05-04 02:08 39.86419 -104.67628 5373 ft 11 kts 92°
2026-05-04 02:08 39.86416 -104.67507 5376 ft 14 kts 90°
2026-05-04 02:08 39.86413 -104.67379 5373 ft 14 kts 92°
2026-05-04 02:08 39.86413 -104.67256 5376 ft 13 kts 89°
2026-05-04 02:09 39.86414 -104.67138 5373 ft 13 kts 90°
2026-05-04 02:09 39.86411 -104.67025 5376 ft 13 kts 91°
2026-05-04 02:09 39.86410 -104.66904 5376 ft 15 kts 90°
2026-05-04 02:09 39.86409 -104.66729 5376 ft 25 kts 90°
2026-05-04 02:10 39.86408 -104.66579 5373 ft 13 kts 91°
2026-05-04 02:10 39.86445 -104.66508 5373 ft 10 kts 10°
2026-05-04 02:10 39.86498 -104.66458 5375 ft 10 kts 77°
2026-05-04 02:10 39.86502 -104.66344 5374 ft 16 kts 90°
2026-05-04 02:11 39.86527 -104.66235 5376 ft 13 kts 33°
2026-05-04 02:11 39.86612 -104.66226 5375 ft 12 kts
2026-05-04 02:11 39.86701 -104.66224 5373 ft 15 kts
2026-05-04 02:11 39.86832 -104.66222 5372 ft 21 kts
2026-05-04 02:12 39.86980 -104.66219 5366 ft 21 kts
2026-05-04 02:12 39.87125 -104.66217 5363 ft 20 kts 360°
2026-05-04 02:12 39.87265 -104.66215 5361 ft 20 kts 359°
2026-05-04 02:12 39.87401 -104.66215 5360 ft 19 kts
2026-05-04 02:13 39.87534 -104.66213 5359 ft 19 kts
2026-05-04 02:13 39.87661 -104.66212 5362 ft 18 kts
2026-05-04 02:13 39.87753 -104.66139 5359 ft 18 kts 83°
2026-05-04 02:13 39.87752 -104.65789 5355 ft 76 kts 91°
2026-05-04 02:14 39.87745 -104.64760 5343 ft 150 kts 90°
2026-05-04 02:14 39.87731 -104.63192 5712 ft 181 kts 92°
2026-05-04 02:14 39.87652 -104.61532 6579 ft 194 kts 103°
2026-05-04 02:14 39.87110 -104.59893 7478 ft 195 kts 114°
2026-05-04 02:15 39.86595 -104.58221 8350 ft 200 kts 111°
2026-05-04 02:15 39.86076 -104.56512 8869 ft 212 kts 112°
2026-05-04 02:15 39.85519 -104.54574 9046 ft 239 kts 110°
2026-05-04 02:15 39.84918 -104.52437 9231 ft 264 kts 110°
2026-05-04 02:16 39.84242 -104.50093 9465 ft 289 kts 111°
2026-05-04 02:16 39.83518 -104.47645 9986 ft 297 kts 111°
2026-05-04 02:16 39.82758 -104.45112 9975 ft 300 kts 111°
2026-05-04 02:16 39.81995 -104.42591 9983 ft 297 kts 112°
2026-05-04 02:17 39.80960 -104.40300 9983 ft 295 kts 134°
2026-05-04 02:17 39.79283 -104.38742 10074 ft 305 kts 157°
2026-05-04 02:17 39.77177 -104.37842 10282 ft 330 kts 164°
2026-05-04 02:17 39.74883 -104.37005 10504 ft 353 kts 164°
2026-05-04 02:18 39.72462 -104.36221 11023 ft 363 kts 173°
2026-05-04 02:18 39.69933 -104.36366 11722 ft 367 kts 194°
2026-05-04 02:18 39.67521 -104.37481 12486 ft 369 kts 202°
2026-05-04 02:18 39.65143 -104.38774 13158 ft 373 kts 203°
2026-05-04 02:19 39.62748 -104.40089 13776 ft 378 kts 203°
2026-05-04 02:19 39.60311 -104.41403 13975 ft 379 kts 202°
2026-05-04 02:19 39.57855 -104.42702 13982 ft 380 kts 202°
2026-05-04 02:19 39.55408 -104.43983 14005 ft 378 kts 202°
2026-05-04 02:20 39.53029 -104.45386 14054 ft 377 kts 212°
2026-05-04 02:20 39.51070 -104.47649 14096 ft 377 kts 230°
2026-05-04 02:20 39.49440 -104.50254 14087 ft 378 kts 232°
2026-05-04 02:20 39.47795 -104.52967 14078 ft 379 kts 232°
2026-05-04 02:21 39.46158 -104.55657 14085 ft 380 kts 232°
2026-05-04 02:21 39.44509 -104.58333 14084 ft 381 kts 231°
2026-05-04 02:21 39.42849 -104.60998 14084 ft 381 kts 231°
2026-05-04 02:21 39.41182 -104.63658 14082 ft 381 kts 231°
2026-05-04 02:22 39.39517 -104.66310 14080 ft 380 kts 231°
2026-05-04 02:22 39.37848 -104.68968 14079 ft 378 kts 231°
2026-05-04 02:22 39.36194 -104.71616 14167 ft 379 kts 231°
2026-05-04 02:22 39.34545 -104.74260 14730 ft 379 kts 231°
2026-05-04 02:23 39.32876 -104.76933 15340 ft 384 kts 231°
2026-05-04 02:23 39.31245 -104.79543 15985 ft 387 kts 231°
2026-05-04 02:23 39.29544 -104.82259 16655 ft 390 kts 231°
2026-05-04 02:23 39.27851 -104.84962 17280 ft 394 kts 231°
2026-05-04 02:24 39.26122 -104.87718 17886 ft 397 kts 231°
2026-05-04 02:24 39.24375 -104.90500 18485 ft 401 kts 231°
2026-05-04 02:24 39.22614 -104.93301 19057 ft 404 kts 231°
2026-05-04 02:24 39.20829 -104.96137 19641 ft 408 kts 231°
2026-05-04 02:25 39.19034 -104.98988 20151 ft 412 kts 231°
2026-05-04 02:25 39.17217 -105.01871 20550 ft 418 kts 231°
2026-05-04 02:25 39.15356 -105.04772 20991 ft 421 kts 227°
2026-05-04 02:25 39.13052 -105.07111 21495 ft 422 kts 209°
2026-05-04 02:26 39.10410 -105.08879 22144 ft 422 kts 207°
2026-05-04 02:26 39.07768 -105.10559 22634 ft 425 kts 206°
2026-05-04 02:26 39.05120 -105.12221 23048 ft 429 kts 206°
2026-05-04 02:26 39.02429 -105.13916 23481 ft 432 kts 206°
2026-05-04 02:27 38.99729 -105.15631 23935 ft 434 kts 206°
2026-05-04 02:27 38.96974 -105.17394 24397 ft 437 kts 207°
2026-05-04 02:27 38.94279 -105.19127 24801 ft 440 kts 207°
2026-05-04 02:27 38.91532 -105.20898 25155 ft 443 kts 207°
2026-05-04 02:28 38.88759 -105.22687 25495 ft 447 kts 207°
2026-05-04 02:28 38.85975 -105.24482 25881 ft 449 kts 207°
2026-05-04 02:28 38.83180 -105.26282 26339 ft 449 kts 207°
2026-05-04 02:28 38.80381 -105.28084 26744 ft 451 kts 207°
2026-05-04 02:29 38.77570 -105.29890 27133 ft 452 kts 207°
2026-05-04 02:29 38.74748 -105.31702 27453 ft 456 kts 206°
2026-05-04 02:29 38.71901 -105.33529 27730 ft 459 kts 207°
2026-05-04 02:29 38.69031 -105.35368 28028 ft 462 kts 207°
2026-05-04 02:30 38.66145 -105.37215 28301 ft 465 kts 207°
2026-05-04 02:30 38.63276 -105.39051 28496 ft 469 kts 207°
2026-05-04 02:30 38.60340 -105.40927 28609 ft 475 kts 207°
2026-05-04 02:30 38.57379 -105.42817 28847 ft 477 kts 207°
2026-05-04 02:31 38.54406 -105.44714 29165 ft 477 kts 207°
2026-05-04 02:31 38.51439 -105.46603 29460 ft 477 kts 206°
2026-05-04 02:31 38.48456 -105.48502 29696 ft 478 kts 206°
2026-05-04 02:31 38.45477 -105.50397 30043 ft 477 kts 207°
2026-05-04 02:32 38.42527 -105.52269 30502 ft 473 kts 206°
2026-05-04 02:32 38.39575 -105.54119 30816 ft 473 kts 206°
2026-05-04 02:32 38.36647 -105.55939 31038 ft 474 kts 206°
2026-05-04 02:32 38.33642 -105.57801 31251 ft 475 kts 206°
2026-05-04 02:33 38.31670 -105.59022 31384 ft 476 kts 206°
2026-05-04 02:33 38.28683 -105.60871 31579 ft 478 kts 206°
2026-05-04 02:33 38.24716 -105.63328 31832 ft 479 kts 206°
2026-05-04 02:33 38.21715 -105.65185 32041 ft 480 kts 206°
2026-05-04 02:34 38.18711 -105.67043 32187 ft 481 kts 206°
2026-05-04 02:34 38.16678 -105.68300 32236 ft 483 kts 206°
2026-05-04 02:34 38.13650 -105.70171 32351 ft 484 kts 206°
2026-05-04 02:34 38.10629 -105.72034 32552 ft 483 kts 206°
2026-05-04 02:35 38.07627 -105.73884 33038 ft 476 kts 206°
2026-05-04 02:35 38.04696 -105.75690 33514 ft 470 kts 206°
2026-05-04 02:35 38.01772 -105.77538 33956 ft 467 kts 210°
2026-05-04 02:35 37.99196 -105.80021 34271 ft 465 kts 225°
2026-05-04 02:36 37.96926 -105.82936 34592 ft 465 kts 226°
2026-05-04 02:36 37.94687 -105.85884 34872 ft 464 kts 226°
2026-05-04 02:36 37.92446 -105.88841 35154 ft 464 kts 226°
2026-05-04 02:36 37.90202 -105.91779 35472 ft 463 kts 226°
2026-05-04 02:37 37.87956 -105.94692 35815 ft 461 kts 226°
2026-05-04 02:37 37.85713 -105.97576 36114 ft 460 kts 225°
2026-05-04 02:37 37.81172 -106.03371 36136 ft 463 kts 225°
2026-05-04 02:38 37.76675 -106.09082 36137 ft 459 kts 225°
2026-05-04 02:38 37.72183 -106.14776 36141 ft 455 kts 225°
2026-05-04 02:39 37.67727 -106.20417 36131 ft 453 kts 225°
2026-05-04 02:39 37.63273 -106.26046 36145 ft 452 kts 225°
2026-05-04 02:40 37.58821 -106.31664 36145 ft 453 kts 225°
2026-05-04 02:40 37.54348 -106.37296 36135 ft 456 kts 225°
2026-05-04 02:41 37.49830 -106.42977 36146 ft 461 kts 225°
2026-05-04 02:41 37.45266 -106.48705 36167 ft 465 kts 225°
2026-05-04 02:42 37.40694 -106.54433 36230 ft 467 kts 225°
2026-05-04 02:42 37.36092 -106.60187 36222 ft 462 kts 225°
2026-05-04 02:43 37.31556 -106.65847 36317 ft 458 kts 225°
2026-05-04 02:43 37.27029 -106.71487 36322 ft 460 kts 225°
2026-05-04 02:44 37.22482 -106.77143 36321 ft 455 kts 225°
2026-05-04 02:44 37.18032 -106.82666 36312 ft 447 kts 225°
2026-05-04 02:45 37.13633 -106.88118 36310 ft 448 kts 225°
2026-05-04 02:45 37.09173 -106.93635 36236 ft 451 kts 225°
2026-05-04 02:46 37.04704 -106.99154 36235 ft 452 kts 225°
2026-05-04 02:46 37.00204 -107.04701 36147 ft 455 kts 225°
2026-05-04 02:47 36.95688 -107.10258 36143 ft 456 kts 225°
2026-05-04 02:47 36.91161 -107.15819 36139 ft 457 kts 225°
2026-05-04 02:48 36.86625 -107.21382 36134 ft 458 kts 224°
2026-05-04 02:48 36.82067 -107.26962 36098 ft 460 kts 225°
2026-05-04 02:49 36.77481 -107.32565 36055 ft 461 kts 224°
2026-05-04 02:49 36.72915 -107.38135 36045 ft 462 kts 224°
2026-05-04 02:50 36.68308 -107.43745 36047 ft 463 kts 224°
2026-05-04 02:50 36.63696 -107.49350 36046 ft 464 kts 224°
2026-05-04 02:51 36.59064 -107.54969 36047 ft 465 kts 224°
2026-05-04 02:51 36.54425 -107.60588 36054 ft 467 kts 224°
2026-05-04 02:52 36.49762 -107.66226 36047 ft 469 kts 224°
2026-05-04 02:52 36.45074 -107.71884 36052 ft 470 kts 224°
2026-05-04 02:53 36.40369 -107.77552 36044 ft 471 kts 224°
2026-05-04 02:53 36.35650 -107.83227 36050 ft 471 kts 224°
2026-05-04 02:54 36.30940 -107.88881 36044 ft 471 kts 224°
2026-05-04 02:54 36.26271 -107.94473 36035 ft 467 kts 224°
2026-05-04 02:55 36.19288 -108.02826 36045 ft 463 kts 224°
2026-05-04 02:56 36.14649 -108.08362 36045 ft 462 kts 224°
2026-05-04 02:56 36.10022 -108.13874 36047 ft 462 kts 224°
2026-05-04 02:57 36.05388 -108.19383 36053 ft 462 kts 224°
2026-05-04 02:57 36.00750 -108.24887 36045 ft 463 kts 224°
2026-05-04 02:58 35.96125 -108.30368 36046 ft 464 kts 224°
2026-05-04 02:58 35.91457 -108.35890 36052 ft 465 kts 224°
2026-05-04 02:59 35.86784 -108.41409 36043 ft 466 kts 224°
2026-05-04 02:59 35.82075 -108.46961 36049 ft 466 kts 224°
2026-05-04 03:00 35.77386 -108.52479 36047 ft 465 kts 224°
2026-05-04 03:00 35.72700 -108.57984 36051 ft 465 kts 224°
2026-05-04 03:01 35.68033 -108.63457 36050 ft 465 kts 224°
2026-05-04 03:01 35.63339 -108.68951 36048 ft 464 kts 224°
2026-05-04 03:02 35.58670 -108.74407 36050 ft 464 kts 224°
2026-05-04 03:02 35.53989 -108.79868 36045 ft 463 kts 224°
2026-05-04 03:03 35.49360 -108.85259 36046 ft 461 kts 224°
2026-05-04 03:03 35.44792 -108.90770 36050 ft 459 kts 226°
2026-05-04 03:04 35.40429 -108.96486 36035 ft 458 kts 227°
2026-05-04 03:04 35.36086 -109.02201 36052 ft 457 kts 227°
2026-05-04 03:05 35.31727 -109.07867 36045 ft 457 kts 227°
2026-05-04 03:05 35.27340 -109.13528 36052 ft 458 kts 226°
2026-05-04 03:06 35.22935 -109.19194 36046 ft 460 kts 226°
2026-05-04 03:06 35.18522 -109.24864 36042 ft 460 kts 226°
2026-05-04 03:07 35.14123 -109.30507 36044 ft 456 kts 226°
2026-05-04 03:07 35.09754 -109.36103 36038 ft 453 kts 226°
2026-05-04 03:08 35.05408 -109.41660 36054 ft 451 kts 226°
2026-05-04 03:08 35.01062 -109.47208 36045 ft 451 kts 226°
2026-05-04 03:09 34.96719 -109.52742 36053 ft 452 kts 226°
2026-05-04 03:09 34.92348 -109.58302 36047 ft 455 kts 226°
2026-05-04 03:10 34.87952 -109.63884 36051 ft 458 kts 226°
2026-05-04 03:10 34.83530 -109.69493 36062 ft 464 kts 226°
2026-05-04 03:11 34.79059 -109.75183 35926 ft 465 kts 226°
2026-05-04 03:11 34.76825 -109.78031 35651 ft 461 kts 227°
2026-05-04 03:11 34.74612 -109.80850 35413 ft 461 kts 226°
2026-05-04 03:11 34.72393 -109.83669 35178 ft 463 kts 226°
2026-05-04 03:12 34.70965 -109.85604 35012 ft 463 kts 233°
2026-05-04 03:12 34.68920 -109.90174 34693 ft 461 kts 246°
2026-05-04 03:12 34.68064 -109.92551 34527 ft 463 kts 247°
2026-05-04 03:12 34.66789 -109.96150 34277 ft 464 kts 247°
2026-05-04 03:13 34.65509 -109.99739 34025 ft 464 kts 246°
2026-05-04 03:13 34.64204 -110.03338 33786 ft 464 kts 246°
2026-05-04 03:13 34.62884 -110.06918 33544 ft 465 kts 246°
2026-05-04 03:13 34.61548 -110.10506 33291 ft 464 kts 246°
2026-05-04 03:14 34.60217 -110.14059 33036 ft 461 kts 245°
2026-05-04 03:14 34.58907 -110.17544 32790 ft 459 kts 245°
2026-05-04 03:14 34.57585 -110.21056 32434 ft 454 kts 245°
2026-05-04 03:14 34.56277 -110.24532 31974 ft 450 kts 245°
2026-05-04 03:15 34.54983 -110.27970 31486 ft 446 kts 245°
2026-05-04 03:15 34.53701 -110.31379 30999 ft 442 kts 245°
2026-05-04 03:15 34.52426 -110.34766 30507 ft 439 kts 245°
2026-05-04 03:15 34.51162 -110.38120 30022 ft 436 kts 245°
2026-05-04 03:16 34.49908 -110.41444 29654 ft 429 kts 245°
2026-05-04 03:16 34.48676 -110.44704 29290 ft 423 kts 245°
2026-05-04 03:16 34.47452 -110.47942 28803 ft 420 kts 245°
2026-05-04 03:16 34.46239 -110.51143 28324 ft 417 kts 245°
2026-05-04 03:17 34.45035 -110.54320 27853 ft 414 kts 245°
2026-05-04 03:17 34.43833 -110.57489 27364 ft 412 kts 245°
2026-05-04 03:17 34.42641 -110.60626 26896 ft 409 kts 245°
2026-05-04 03:17 34.41456 -110.63743 26419 ft 406 kts 245°
2026-05-04 03:18 34.40276 -110.66842 25945 ft 404 kts 245°
2026-05-04 03:18 34.39106 -110.69915 25478 ft 401 kts 245°
2026-05-04 03:18 34.37938 -110.72978 25003 ft 398 kts 245°
2026-05-04 03:18 34.36780 -110.76012 24547 ft 396 kts 245°
2026-05-04 03:19 34.35603 -110.79019 24083 ft 394 kts 241°
2026-05-04 03:19 34.33982 -110.81662 23581 ft 393 kts 227°
2026-05-04 03:19 34.33518 -110.82273 23476 ft 392 kts 227°
2026-05-04 03:28 34.33201 -110.82685 23398 ft 392 kts 227°
2026-05-04 03:28 34.31305 -110.85082 22886 ft 393 kts 226°
2026-05-04 03:28 34.29401 -110.87461 22379 ft 393 kts 226°
2026-05-04 03:28 34.27536 -110.89807 21884 ft 391 kts 226°
2026-05-04 03:29 34.25670 -110.92186 21383 ft 389 kts 226°
2026-05-04 03:29 34.23810 -110.94568 20882 ft 387 kts 227°
2026-05-04 03:29 34.21974 -110.96931 20376 ft 385 kts 227°
2026-05-04 03:29 34.20149 -110.99284 19897 ft 382 kts 227°
2026-05-04 03:30 34.18341 -111.01617 19405 ft 380 kts 227°
2026-05-04 03:30 34.16538 -111.03941 18920 ft 378 kts 227°
2026-05-04 03:30 34.14748 -111.06247 18437 ft 375 kts 227°
2026-05-04 03:30 34.12966 -111.08540 17968 ft 373 kts 227°
2026-05-04 03:31 34.11205 -111.10804 17640 ft 366 kts 227°
2026-05-04 03:31 34.09487 -111.13013 17484 ft 355 kts 227°
2026-05-04 03:31 34.07813 -111.15163 17078 ft 352 kts 227°
2026-05-04 03:31 34.06139 -111.17311 16697 ft 349 kts 227°
2026-05-04 03:32 34.04481 -111.19438 16316 ft 346 kts 227°
2026-05-04 03:32 34.02842 -111.21540 15941 ft 343 kts 227°
2026-05-04 03:32 34.01214 -111.23624 15581 ft 340 kts 227°
2026-05-04 03:32 33.99623 -111.25661 15227 ft 337 kts 227°
2026-05-04 03:33 33.98021 -111.27712 14862 ft 333 kts 227°
2026-05-04 03:33 33.96442 -111.29731 14522 ft 330 kts 227°
2026-05-04 03:33 33.94871 -111.31740 14174 ft 327 kts 227°
2026-05-04 03:33 33.93317 -111.33724 13821 ft 324 kts 227°
2026-05-04 03:34 33.91775 -111.35692 13493 ft 321 kts 227°
2026-05-04 03:34 33.90245 -111.37646 13156 ft 319 kts 227°
2026-05-04 03:34 33.88730 -111.39578 12823 ft 316 kts 227°
2026-05-04 03:34 33.87136 -111.41392 12486 ft 314 kts 218°
2026-05-04 03:35 33.85377 -111.42901 12182 ft 311 kts 214°
2026-05-04 03:35 33.83581 -111.44363 11850 ft 308 kts 214°
2026-05-04 03:35 33.81821 -111.45829 11522 ft 306 kts 215°
2026-05-04 03:35 33.80115 -111.47277 11212 ft 303 kts 216°
2026-05-04 03:36 33.78385 -111.48758 10889 ft 301 kts 216°
2026-05-04 03:36 33.76710 -111.50196 10584 ft 298 kts 216°
2026-05-04 03:36 33.75028 -111.51642 10245 ft 297 kts 216°
2026-05-04 03:36 33.73359 -111.53076 10065 ft 289 kts 216°
2026-05-04 03:37 33.71713 -111.54490 9606 ft 293 kts 216°
2026-05-04 03:37 33.70061 -111.55908 9268 ft 292 kts 216°
2026-05-04 03:37 33.68406 -111.57327 8881 ft 293 kts 216°
2026-05-04 03:37 33.66748 -111.58749 8564 ft 291 kts 216°
2026-05-04 03:38 33.65107 -111.60155 8256 ft 289 kts 216°
2026-05-04 03:38 33.63473 -111.61545 7946 ft 287 kts 215°
2026-05-04 03:38 33.61838 -111.62913 7663 ft 284 kts 215°
2026-05-04 03:38 33.60252 -111.64237 7601 ft 273 kts 215°
2026-05-04 03:39 33.58714 -111.65522 7498 ft 261 kts 215°
2026-05-04 03:39 33.57259 -111.66738 7405 ft 249 kts 215°
2026-05-04 03:39 33.55890 -111.67881 7320 ft 235 kts 215°
2026-05-04 03:39 33.54587 -111.68979 7108 ft 224 kts 216°
2026-05-04 03:40 33.53336 -111.70038 6849 ft 215 kts 215°
2026-05-04 03:40 33.52140 -111.71048 6566 ft 206 kts 215°
2026-05-04 03:40 33.50983 -111.72025 6230 ft 202 kts 215°
2026-05-04 03:40 33.49937 -111.72909 5856 ft 201 kts 215°
2026-05-04 03:41 33.48804 -111.73864 5463 ft 200 kts 215°
2026-05-04 03:41 33.47655 -111.74834 5072 ft 202 kts 216°
2026-05-04 03:41 33.46580 -111.75930 4655 ft 205 kts 235°
2026-05-04 03:41 33.45878 -111.77417 4290 ft 205 kts 241°
2026-05-04 03:42 33.45184 -111.78896 3875 ft 202 kts 240°
2026-05-04 03:42 33.44497 -111.80350 3466 ft 198 kts 243°
2026-05-04 03:42 33.44180 -111.81923 3117 ft 191 kts 267°
2026-05-04 03:42 33.44102 -111.83450 3042 ft 179 kts 268°
2026-05-04 03:43 33.44072 -111.84879 3025 ft 163 kts 270°
2026-05-04 03:43 33.44068 -111.86178 3048 ft 155 kts 270°
2026-05-04 03:43 33.44070 -111.87478 3050 ft 158 kts 270°
2026-05-04 03:43 33.44071 -111.88802 3045 ft 159 kts 270°
2026-05-04 03:44 33.44073 -111.90108 3033 ft 159 kts 270°
2026-05-04 03:44 33.44079 -111.91478 2727 ft 168 kts 270°
2026-05-04 03:44 33.44079 -111.92854 2344 ft 162 kts 269°
2026-05-04 03:44 33.44063 -111.94174 1996 ft 154 kts 270°
2026-05-04 03:45 33.44071 -111.95199 1781 ft 157 kts 271°
2026-05-04 03:45 33.44077 -111.96515 1596 ft 158 kts 270°
2026-05-04 03:45 33.44072 -111.97813 1403 ft 154 kts 270°
2026-05-04 03:45 33.44078 -111.99073 1197 ft 147 kts 271°
2026-05-04 03:46 33.44084 -112.00192 1133 ft 119 kts 270°
2026-05-04 03:46 33.44084 -112.01008 1131 ft 76 kts 270°
2026-05-04 03:46 33.44086 -112.01472 1131 ft 32 kts 270°
2026-05-04 03:46 33.44058 -112.01663 1130 ft 22 kts 237°
2026-05-04 03:47 33.44003 -112.01741 1130 ft 0 kts 227°
2026-05-04 03:48 33.44000 -112.01744 1130 ft 4 kts 223°
2026-05-04 03:48 33.43957 -112.01772 1130 ft 12 kts 199°
2026-05-04 03:49 33.43900 -112.01749 1129 ft 6 kts 95°
2026-05-04 03:49 33.43903 -112.01603 1130 ft 23 kts 89°
2026-05-04 03:49 33.43900 -112.01412 1134 ft 23 kts 91°
2026-05-04 03:49 33.43901 -112.01289 1130 ft 22 kts 88°
2026-05-04 03:50 33.43902 -112.01107 1130 ft 22 kts 90°
2026-05-04 03:50 33.43902 -112.00931 1134 ft 21 kts 90°
2026-05-04 03:50 33.43902 -112.00760 1134 ft 20 kts 91°
2026-05-04 03:50 33.43902 -112.00594 1130 ft 20 kts 90°
2026-05-04 03:51 33.43879 -112.00482 1134 ft 13 kts 144°
2026-05-04 03:51 33.43791 -112.00470 1134 ft 13 kts 179°
2026-05-04 03:51 33.43697 -112.00470 1130 ft 14 kts 180°
2026-05-04 03:51 33.43587 -112.00471 1136 ft 17 kts 180°
2026-05-04 03:52 33.43467 -112.00471 1130 ft 17 kts 179°
2026-05-04 03:52 33.43352 -112.00470 1133 ft 14 kts 180°
2026-05-04 03:52 33.43285 -112.00410 1130 ft 13 kts 98°
2026-05-04 03:52 33.43283 -112.00295 1133 ft 16 kts 90°
2026-05-04 03:53 33.43284 -112.00141 1134 ft 20 kts 90°
2026-05-04 03:53 33.43284 -111.99980 1135 ft 19 kts 90°
2026-05-04 03:53 33.43284 -111.99837 1135 ft 13 kts 90°
2026-05-04 03:53 33.43283 -111.99733 1135 ft 12 kts 90°
2026-05-04 03:54 33.43284 -111.99707 1130 ft 0 kts 90°
2026-05-04 03:55 33.43290 -111.99671 1133 ft 8 kts 57°
2026-05-04 03:56 33.43320 -111.99654 1134 ft 4 kts 360°
2026-05-04 03:56 33.43337 -111.99654 1130 ft 1 kts 360°
2026-05-04 03:56 33.43341 -111.99654 1130 ft 1 kts
2026-05-04 03:56 33.43344 -111.99654 1130 ft 0 kts